Location: Newark
(48.6461°N, 4.3644°W)
Time: 15:19:46
(UTC+00:00)

Transit 4A - Pass Details

Date: 31 January 2020
Orbit: 872 x 973 km, 66.8° (Epoch: 26 February)

Event Time Altitude Azimuth Distance (km) Brightness Sun altitude
Rises 15:58:21 0° 309° (NW) 3,470 11.0 9.5°
Reaches altitude 10° 16:02:26 10° 282° (WNW) 2,531 10.8 9.0°
Maximum altitude 16:04:42 12° 258° (WSW) 2,362 11.4 8.7°
Drops below altitude 10° 16:06:59 10° 235° (SW) 2,537 13.6 8.4°
Sets 16:11:06 0° 207° (SSW) 3,487 12.3 7.9°
